Simultaneous Nadir Overpasses (SNOs) Predictions

Prediction of SNOs between LANDSAT-8 and TERRA Satellite Orbit:

Table of predicted SNOs for the next 14.0 days since TLE Epoch: 8/26/2023
Index Date (LANDSAT-8) Time (LANDSAT-8) Lat,Lon (LANDSAT-8) SZA (LANDSAT-8 ) Date (TERRA) Time (TERRA) Lat,Lon (TERRA) SZA (TERRA ) Distance(km) Time Diff (sec)
1 09/07/2023 12:20:11 -81.46,-105.22 97.43 09/07/2023 12:21:20 -81.46,-105.12 97.37 1.69 69
2 09/07/2023 13:09:37 81.46, 62.59 82.62 09/07/2023 13:10:43 81.47, 62.43 82.63 2.81 66
3 09/07/2023 13:59:03 -81.45,-129.53 97.34 09/07/2023 14:00:04 -81.46,-129.73 97.33 3.36 61
4 09/07/2023 14:48:29 81.44, 38.28 82.70 09/07/2023 14:49:26 81.44, 38.21 82.73 1.10 57
5 09/07/2023 15:37:56 -81.45,-154.24 97.31 09/07/2023 15:38:48 -81.45,-154.33 97.30 1.65 52
6 09/07/2023 16:27:22 81.44, 13.57 82.73 09/07/2023 16:28:10 81.44, 13.60 82.76 0.62 48
7 09/07/2023 17:16:48 -81.43,-178.56 97.23 09/07/2023 17:17:31 -81.43,-178.55 97.20 0.10 43
8 09/07/2023 18:06:15 81.44, -11.14 82.76 09/07/2023 18:06:54 81.43, -11.00 82.80 2.34 39
9 09/07/2023 18:55:41 -81.43, 156.73 97.20 09/07/2023 18:56:15 -81.42, 156.84 97.17 1.79 34
10 09/07/2023 19:45:06 81.40, -35.07 82.89 09/07/2023 19:45:37 81.41, -35.23 82.89 2.73 31
11 09/07/2023 20:34:32 -81.39, 132.80 97.07 09/07/2023 20:34:58 -81.40, 132.61 97.08 3.25 26
12 09/07/2023 21:23:59 81.40, -59.78 82.92 09/07/2023 21:24:21 81.40, -59.83 82.93 1.01 22
13 09/07/2023 22:13:25 -81.39, 108.09 97.04 09/07/2023 22:13:42 -81.39, 108.01 97.04 1.53 17
14 09/07/2023 23:02:52 81.40, -84.48 82.95 09/07/2023 23:03:05 81.40, -84.44 82.96 0.72 13
15 09/07/2023 23:52:18 -81.39, 83.39 97.01 09/07/2023 23:52:26 -81.39, 83.40 97.00 0.21 8
16 09/08/2023 00:41:44 81.38,-108.80 83.03 09/08/2023 00:41:48 81.37,-108.67 83.06 2.42 4
17 09/08/2023 01:31:10 -81.37, 59.06 96.93 09/08/2023 01:31:09 -81.36, 59.17 96.91 1.90 1
18 09/08/2023 02:20:36 81.36,-133.13 83.12 09/08/2023 02:20:32 81.37,-133.28 83.09 2.65 4
19 09/08/2023 03:10:02 -81.35, 34.74 96.84 09/08/2023 03:09:53 -81.36, 34.56 96.88 3.15 9
20 09/08/2023 03:59:28 81.34,-157.45 83.20 09/08/2023 03:59:15 81.34,-157.51 83.18 0.94 13
21 09/08/2023 04:48:54 -81.33, 10.41 96.76 09/08/2023 04:48:36 -81.33, 10.33 96.78 1.43 18
22 09/08/2023 05:38:21 81.34, 177.84 83.23 09/08/2023 05:37:59 81.34, 177.89 83.22 0.79 22
23 09/08/2023 06:27:47 -81.33, -14.30 96.73 09/08/2023 06:27:20 -81.33, -14.28 96.75 0.29 27
24 09/08/2023 07:17:13 81.32, 153.51 83.31 09/08/2023 07:16:42 81.31, 153.65 83.31 2.50 31
25 09/08/2023 08:06:39 -81.31, -38.62 96.65 09/08/2023 08:06:03 -81.30, -38.51 96.66 2.01 36
26 09/08/2023 08:56:05 81.30, 129.19 83.39 09/08/2023 08:55:26 81.31, 129.04 83.35 2.57 39
27 09/08/2023 09:45:31 -81.29, -62.96 96.57 09/08/2023 09:44:47 -81.30, -63.12 96.62 3.04 44
28 09/08/2023 10:34:57 81.28, 104.86 83.48 09/08/2023 10:34:09 81.28, 104.81 83.44 0.86 48
29 09/08/2023 11:24:23 -81.26, -87.29 96.48 09/08/2023 11:23:30 -81.27, -87.36 96.53 1.33 53
30 09/08/2023 12:13:50 81.28, 80.15 83.50 09/08/2023 12:12:53 81.27, 80.20 83.48 0.86 57
31 09/08/2023 13:03:16 -81.26,-112.00 96.46 09/08/2023 13:02:14 -81.26,-111.97 96.49 0.40 62
32 09/08/2023 13:52:42 81.25, 55.81 83.59 09/08/2023 13:51:36 81.25, 55.96 83.57 2.58 66



Historial Predications of SNOs between LANDSAT-8 and TERRA
